GFSNIL_prec_cthk_024.txt.gz
RH
63 68 71 71 72 66 61 58 52 55 58 59 61 62 62 64 61 58 52 44 39 36
65 70 73 81 72 63 63 59 57 59 60 61 62 64 67 67 64 59 51 44 42 41
67 69 81 76 75 63 68 58 59 62 66 66 68 72 72 68 63 57 51 49 43 39
65 81 79 72 76 68 63 62 66 69 69 71 75 76 72 67 64 59 54 44 39 35
80 81 79 85 70 70 65 68 70 71 72 78 78 75 72 69 66 59 47 39 36 34
82 82 81 73 72 68 71 72 72 73 78 79 78 76 75 70 61 50 40 37 35 34
83 80 76 70 69 73 74 75 75 79 82 81 79 78 72 63 52 41 38 37 34 31
83 78 71 70 73 76 77 77 79 86 83 83 81 74 65 50 41 39 40 35 33 34
79 76 72 74 77 78 78 79 87 84 86 82 73 65 47 41 39 39 36 34 35 35
78 75 76 77 77 78 80 87 86 87 82 71 62 44 41 40 36 33 34 37 35 30
78 75 74 76 78 82 85 89 87 78 69 54 43 41 40 34 31 37 39 34 30 29
72 76 77 79 84 89 90 84 73 62 45 43 42 39 33 33 36 37 32 30 25 28
75 78 84 88 90 87 78 68 47 43 43 43 38 34 35 33 32 30 27 26 31 31
84 88 88 86 81 70 50 43 42 44 42 38 36 35 31 26 26 26 27 32 30 30

GFSNIL_prec_cthk_027.txt.gz
RH
47 49 55 64 70 73 80 76 79 66 58 56 59 60 61 61 61 61 61 59 56 52
50 53 60 67 71 76 74 78 67 65 59 60 63 63 63 65 66 67 67 64 56 51
55 61 68 71 75 74 83 77 67 65 61 64 65 68 70 70 71 72 69 61 55 54
63 67 76 79 73 81 77 81 71 66 64 68 72 73 73 74 76 73 66 60 60 53
71 73 76 78 80 84 80 75 74 66 69 73 74 74 75 80 77 71 66 64 56 44
75 74 73 81 81 82 82 85 73 70 74 76 77 77 83 83 75 70 67 59 45 39
76 78 82 83 85 84 80 78 71 75 78 79 80 84 86 78 73 69 59 46 39 37
80 83 82 88 84 84 81 75 77 80 82 82 86 87 81 75 68 56 44 38 37 37
85 86 83 85 82 80 82 78 82 83 84 88 88 83 75 66 53 40 36 37 36 37
89 93 84 81 83 82 79 83 83 84 88 89 81 72 62 48 38 35 36 37 38 34
88 86 87 85 80 81 79 80 83 92 87 77 68 57 42 37 35 35 37 37 32 28
88 86 80 76 74 76 80 91 92 81 74 61 46 40 37 35 36 35 34 30 26 24
74 71 71 72 78 90 93 84 77 64 49 43 39 37 37 36 33 32 28 24 22 23
69 74 82 87 89 85 78 64 47 43 40 39 39 38 36 32 26 27 25 23 22 24

GFSNIL_prec_cthk_030.txt.gz
RH
47 43 43 46 50 55 63 70 78 81 75 79 75 60 58 60 62 64 63 65 67 65
54 48 45 51 56 61 69 78 81 74 79 76 73 60 62 63 64 65 69 70 69 66
56 52 55 58 63 67 76 80 75 75 76 74 67 62 64 65 68 71 72 71 70 66
56 59 64 66 68 73 79 75 80 78 77 73 65 65 68 70 73 75 74 73 70 67
62 69 70 70 76 76 83 85 77 77 78 73 70 70 72 75 77 77 76 73 71 64
70 76 74 74 79 81 87 82 82 83 78 80 73 74 76 78 82 80 76 74 67 58
77 77 77 84 84 82 84 84 83 82 81 84 75 76 82 85 84 79 75 69 58 48
80 81 88 84 83 77 87 85 83 82 87 80 80 87 89 86 80 76 71 57 44 34
89 88 82 87 81 96 91 89 83 81 86 89 89 91 86 79 79 67 53 40 33 37
83 85 85 86 93 91 87 84 91 92 88 88 89 83 83 75 62 48 34 34 38 38
87 95 94 88 93 89 94 91 83 84 89 86 87 79 67 54 39 33 36 38 36 32
98 96 96 94 90 85 82 81 86 92 88 82 69 56 42 34 35 38 35 32 27 24
97 95 88 78 76 79 86 92 86 84 67 54 42 36 36 38 37 33 26 21 21 21
82 75 74 79 86 90 89 79 60 46 41 39 38 40 40 35 30 25 25 25 22 21

GFSNIL_prec_cthk_033.txt.gz
RH
41 45 51 57 56 60 61 60 61 63 72 79 80 82 73 70 69 64 63 63 64 64
42 49 54 60 64 66 65 64 64 66 76 82 86 80 80 72 74 66 65 67 67 69
46 59 57 59 64 63 65 66 66 71 77 81 87 83 75 79 70 68 70 69 71 73
56 66 65 64 66 65 68 69 73 76 81 92 84 76 82 75 70 72 72 73 75 76
59 67 60 65 67 69 72 76 78 82 95 79 84 82 80 74 73 75 76 76 80 80
64 62 62 68 73 75 79 80 89 84 89 95 78 81 81 82 77 79 79 85 83 79
70 68 73 76 78 82 85 84 87 94 90 80 81 84 84 84 83 88 89 84 81 76
74 80 79 78 79 80 82 90 92 85 89 87 87 89 94 96 92 90 85 82 74 64
82 80 82 83 85 85 96 88 85 87 90 93 93 97 97 91 86 87 80 70 58 42
82 78 88 90 90 94 90 94 94 96 95 98 97 92 85 89 81 72 62 45 35 35
84 88 92 97 94 88 97 95 97 98 91 90 89 87 81 74 62 45 35 35 37 36
86 92 93 89 95 96 98 96 89 91 89 86 84 73 57 42 35 36 39 37 29 25
98 99 99 98 97 91 84 85 84 81 83 62 44 38 36 38 39 37 29 25 22 19
98 98 91 84 83 82 83 82 70 47 40 38 37 39 40 36 30 28 25 22 18 16

GFSNIL_prec_cthk_036.txt.gz
RH
29 33 40 50 52 59 59 56 60 68 74 78 81 76 75 78 76 75 74 69 69 65
26 30 35 42 47 52 59 65 68 73 79 83 79 74 78 79 72 90 79 71 76 68
26 29 36 39 43 52 63 66 73 79 81 81 79 75 77 77 82 84 82 72 71 68
25 30 40 44 54 65 69 68 71 79 79 77 74 75 79 88 92 86 76 76 74 71
29 38 55 56 66 74 77 75 75 80 77 74 75 79 86 96 85 78 78 75 73 74
41 44 64 70 77 83 78 77 78 76 75 78 77 85 91 84 91 82 80 79 80 88
58 55 65 77 79 81 79 76 75 76 81 80 86 87 88 90 80 84 88 92 97 96
67 69 77 78 83 76 76 76 80 84 85 91 91 91 90 88 92 98 98 97 91 84
83 85 98 83 79 81 80 82 83 83 91 90 91 98 99 99 98 97 94 86 75 67
90 90 85 85 89 83 85 82 87 92 95 98 99 99 98 94 88 83 76 67 51 39
89 97 91 87 85 94 95 94 94 99 97 98 98 92 92 88 79 65 46 36 35 38
86 90 91 86 94 98 98 97 97 97 98 97 93 89 76 56 39 34 37 39 35 29
86 98 94 98 98 94 98 98 97 95 88 83 58 42 36 35 38 38 32 28 25 20
97 98 97 98 98 93 90 88 84 68 48 38 36 36 38 36 32 31 27 22 18 16

GFSNIL_prec_cthk_039.txt.gz
RH
29 33 36 40 41 45 54 66 64 63 62 64 67 74 82 85 89 89 88 75 74 72
24 26 29 32 37 40 41 49 62 67 72 72 73 77 84 87 89 91 82 76 79 79
24 24 26 27 31 36 39 43 54 66 74 79 78 82 87 86 88 83 78 79 80 86
31 31 30 28 27 33 42 44 52 66 73 78 81 83 85 84 82 79 82 80 84 93
30 33 33 32 31 35 44 57 64 70 81 82 82 81 79 80 85 79 83 87 96 91
44 40 42 40 43 45 53 63 80 82 85 82 78 77 80 82 82 80 82 92 90 92
60 55 57 55 54 55 70 75 82 85 84 82 81 83 81 80 81 84 85 94 94 93
67 70 67 65 61 67 78 79 84 90 86 85 84 82 82 83 87 94 98 98 98 98
73 82 77 70 68 71 76 83 90 89 88 85 87 80 89 91 95 98 98 98 93 86
89 86 83 78 81 80 84 94 91 89 85 86 89 91 98 98 98 97 93 85 79 68
94 95 88 87 97 95 97 95 94 89 91 97 90 98 96 97 95 87 78 66 52 42
98 98 96 93 92 98 98 99 92 92 95 97 98 97 91 81 69 48 42 36 35 34
90 91 99 99 97 94 94 98 98 98 97 93 84 71 57 46 43 37 35 29 26 24
97 94 98 96 98 98 98 97 93 78 62 53 40 36 37 34 31 28 25 23 20 18

GFSNIL_prec_cthk_042.txt.gz
RH
28 28 30 35 39 44 48 52 59 65 66 66 68 71 71 77 78 85 86 87 88 90
29 29 29 28 28 30 38 46 50 54 61 66 77 77 77 75 78 83 84 86 89 87
34 30 29 30 29 29 30 33 38 45 49 60 71 77 86 86 87 88 87 85 86 93
49 42 36 33 31 30 30 31 35 41 45 53 64 79 84 88 92 91 88 87 85 91
62 58 53 47 40 39 36 35 35 43 48 53 59 69 84 94 93 90 90 90 92 89
71 70 68 62 53 46 44 46 45 48 55 57 69 78 85 86 87 87 87 96 91 86
81 76 74 72 66 57 51 52 50 55 61 66 74 82 84 92 86 87 88 98 96 87
75 74 76 74 73 75 68 63 67 68 69 79 83 85 85 87 94 91 98 95 88 87
70 72 77 81 82 84 78 78 78 81 78 76 82 86 89 91 90 95 94 88 96 98
70 71 73 84 91 90 84 80 92 80 77 77 81 85 91 91 97 95 90 96 96 88
89 91 93 90 88 87 84 87 78 82 87 85 86 92 97 90 96 98 93 82 71 57
96 97 98 98 94 93 97 91 98 93 94 97 97 97 96 95 85 71 58 52 47 39
97 98 97 96 95 99 98 98 97 97 97 98 91 83 67 58 44 39 36 30 26 24
98 96 98 98 98 98 98 98 95 81 64 56 50 44 39 34 30 27 25 22 18 18

GFSNIL_prec_cthk_045.txt.gz
RH
26 26 27 30 36 37 38 44 49 54 54 61 67 72 75 81 83 85 86 86 90 89
31 30 30 31 30 31 33 37 42 48 54 62 69 74 79 78 83 86 87 88 90 89
40 41 41 39 35 34 32 31 31 36 43 52 61 68 74 75 81 92 95 94 92 93
42 44 50 50 50 46 41 37 35 35 37 43 49 56 64 66 73 84 91 94 94 91
45 51 50 57 64 63 59 54 48 42 42 42 45 50 55 59 66 72 82 92 89 89
56 60 64 69 68 73 73 71 65 56 52 48 49 57 62 65 68 70 70 71 79 96
55 58 70 76 81 79 82 84 78 66 59 57 56 61 68 71 74 74 83 82 87 98
53 61 76 84 85 89 85 84 79 78 72 62 60 65 69 69 71 78 84 95 95 91
62 66 74 81 91 93 89 85 87 81 79 77 71 70 74 83 85 87 99 91 89 93
80 78 77 81 86 94 96 93 92 90 88 88 91 92 83 89 84 89 89 97 98 95
94 94 94 98 97 97 99 97 90 87 97 98 89 85 89 87 91 92 98 95 87 74
91 97 98 99 98 98 97 96 96 91 91 85 94 98 98 96 92 83 71 57 50 45
94 96 98 98 98 98 98 98 98 98 98 98 97 90 71 59 51 46 40 32 26 21
93 95 96 97 97 98 97 95 86 70 57 49 45 42 38 36 32 27 22 17 15 14

GFSNIL_prec_cthk_048.txt.gz
RH
26 26 26 26 30 36 39 40 37 39 45 50 53 56 59 65 75 73 82 92 89 87
33 33 35 36 37 38 39 37 38 40 45 51 53 60 63 65 71 73 78 89 90 91
35 35 34 35 39 41 43 47 48 45 43 45 51 55 61 67 77 82 87 89 91 93
31 33 35 38 40 45 47 52 52 54 56 52 46 49 55 61 67 73 78 89 93 94
35 37 42 42 44 51 55 60 59 65 63 66 62 55 51 52 59 64 67 72 77 78
36 40 43 43 48 52 59 68 70 73 69 74 75 68 62 59 59 62 66 67 68 72
38 41 45 44 50 58 72 78 81 83 82 82 82 77 68 65 63 66 71 73 76 76
49 49 51 53 57 66 80 83 89 91 93 88 90 82 73 70 69 68 73 75 78 77
59 60 61 63 61 71 85 93 99 98 96 98 92 85 76 73 70 72 75 76 81 87
67 70 71 73 82 81 87 98 94 96 96 95 94 92 91 84 78 78 84 95 92 87
71 73 80 85 90 94 97 96 98 97 96 96 97 97 95 96 98 96 90 93 89 92
73 77 81 85 90 94 97 95 96 93 95 93 93 89 87 93 93 94 87 78 62 48
75 77 80 82 87 91 95 96 97 98 98 97 98 93 81 68 56 49 42 38 30 24
72 74 74 76 80 83 81 76 66 54 50 48 42 37 35 33 31 27 21 16 13 12

GFSNIL_prec_cthk_051.txt.gz
RH
29 29 30 31 32 36 41 45 48 48 43 44 48 54 58 59 60 68 67 68 77 83
32 32 30 31 33 35 37 40 42 47 51 49 53 56 60 64 63 65 66 70 76 76
33 33 31 30 29 31 34 38 40 47 51 50 50 59 68 68 73 76 74 76 81 84
29 29 29 31 31 32 35 40 44 51 53 56 52 55 57 68 75 76 78 84 83 86
27 27 28 31 35 36 38 40 43 48 54 60 63 66 71 69 70 72 72 77 85 87
30 33 34 33 34 37 40 42 48 53 63 69 75 75 76 77 76 78 76 71 71 74
38 37 37 36 36 40 45 48 51 64 74 77 84 88 85 84 79 81 81 78 75 74
46 45 47 46 44 47 52 55 61 72 80 85 92 89 91 90 85 88 87 82 77 76
51 52 54 57 57 58 61 66 71 81 82 88 93 94 90 93 97 95 90 82 72 72
57 56 59 64 67 67 69 76 80 88 91 95 98 98 97 98 98 92 86 84 83 75
60 61 65 67 69 72 74 78 80 82 83 91 94 97 97 98 98 98 94 93 91 89
62 63 65 66 67 69 73 77 81 83 85 88 92 95 96 92 93 91 89 81 72 62
58 59 59 60 63 65 69 73 78 80 75 72 64 60 55 49 44 40 37 32 28 24
54 52 51 47 42 38 35 32 31 31 32 30 28 27 25 22 19 18 16 13 12 12

GFSNIL_prec_cthk_054.txt.gz
RH
28 28 30 31 30 29 30 34 40 45 44 44 55 58 60 66 68 75 77 76 76 76
33 33 31 30 30 29 29 28 28 30 34 40 42 51 57 59 64 75 82 85 89 90
29 29 30 30 28 26 25 26 28 31 35 40 46 48 50 54 58 65 76 83 91 95
28 27 27 26 26 26 28 30 30 31 34 38 41 45 50 57 60 69 70 77 84 96
29 29 27 26 27 29 31 31 32 33 35 38 45 53 59 64 72 77 81 84 84 84
32 31 32 34 35 35 34 33 34 36 40 44 50 54 59 69 79 84 86 91 92 90
39 38 41 41 41 42 38 39 40 41 44 48 59 61 67 76 88 91 91 93 93 92
44 45 46 47 49 50 47 45 46 50 52 55 60 64 74 82 80 80 86 90 95 92
54 54 50 52 54 56 58 56 56 61 60 59 62 69 75 83 88 91 90 92 93 94
58 56 55 57 59 61 59 60 63 63 63 64 68 74 80 83 89 91 97 98 98 89
60 59 59 59 61 59 58 59 62 64 67 69 72 77 82 85 87 92 97 98 97 94
59 58 57 55 54 53 53 56 59 62 61 57 59 59 57 53 51 51 50 48 46 44
55 51 51 50 48 44 36 29 27 27 26 25 24 23 21 19 18 17 17 16 14 12
47 44 38 34 30 27 25 23 23 23 23 22 20 19 17 17 17 18 18 17 14 12

GFSNIL_prec_cthk_057.txt.gz
RH
25 26 28 28 27 29 29 27 28 31 34 31 32 33 36 41 46 51 55 61 71 78
29 30 30 30 30 28 27 27 26 27 27 29 31 33 37 41 40 46 48 51 55 64
28 27 26 27 26 26 25 24 24 24 26 28 30 34 36 37 38 42 45 48 56 62
28 28 27 26 25 23 24 25 27 28 27 27 29 31 35 36 41 47 51 58 65 74
29 29 29 28 27 29 28 26 26 27 28 31 32 33 37 43 46 49 56 67 73 83
33 32 32 32 33 36 34 32 33 33 32 36 37 37 40 47 53 59 66 72 76 82
38 38 37 38 41 44 42 42 42 40 39 41 43 43 47 53 58 64 68 73 78 75
43 44 44 47 49 49 47 48 48 47 47 50 50 51 55 62 65 69 71 74 79 78
49 48 51 53 54 53 52 55 53 51 52 52 53 56 59 64 67 69 71 77 82 86
54 54 56 56 57 58 56 54 53 52 52 53 55 59 63 65 67 71 75 80 83 86
57 58 58 58 58 54 52 51 51 51 49 46 43 39 36 36 38 39 42 48 53 55
59 58 56 51 48 47 44 38 32 30 26 22 20 18 16 15 15 15 15 15 13 12
57 51 47 43 36 29 25 23 21 21 20 19 18 16 15 15 15 15 16 16 16 15
47 41 35 31 28 27 25 24 23 21 20 20 20 20 20 20 20 20 20 20 20 20

GFSNIL_prec_cthk_060.txt.gz
RH
24 24 24 25 25 25 26 27 27 26 26 28 30 30 30 29 33 36 37 40 40 46
28 27 28 28 27 27 28 27 26 26 25 24 24 25 28 30 31 35 37 36 37 43
31 28 27 26 26 26 25 26 25 24 24 24 25 27 28 30 32 34 35 32 38 41
31 30 28 27 25 24 25 24 23 24 25 24 25 26 27 30 33 34 34 39 43 47
32 31 29 28 27 28 28 29 30 28 26 26 26 28 31 34 33 34 40 43 49 55
33 31 32 31 32 34 36 37 36 33 33 32 32 35 38 38 37 42 48 51 56 60
36 37 37 37 39 41 42 43 42 40 38 37 39 43 44 42 43 49 54 55 58 60
41 42 44 47 47 48 49 47 47 48 47 45 46 45 45 46 49 55 58 58 60 65
48 49 50 52 53 53 53 53 53 52 49 47 46 46 48 50 53 56 57 60 63 67
53 53 54 56 58 58 58 54 53 52 49 46 42 40 37 34 32 33 33 35 37 40
59 58 59 60 59 56 54 51 47 40 30 22 20 18 16 15 14 13 14 14 14 13
59 60 58 55 52 47 40 31 25 22 21 19 17 16 15 15 14 14 14 14 15 15
56 52 49 47 38 28 26 24 24 23 21 20 19 19 18 19 19 19 19 19 20 20
44 41 39 32 29 27 27 26 26 25 23 22 22 22 23 24 24 25 25 25 25 24

GFSNIL_prec_cthk_063.txt.gz
RH
25 25 25 24 24 25 27 27 26 27 28 29 29 31 35 38 38 38 36 36 38 41
26 26 26 27 28 29 29 29 28 27 27 27 27 26 26 28 30 32 34 36 38 38
29 28 30 30 31 30 29 26 25 25 25 25 25 25 26 27 28 30 31 33 34 35
34 34 34 33 33 28 26 25 26 26 26 25 26 26 27 27 27 29 31 33 33 36
42 39 36 32 29 28 28 29 30 30 30 31 28 28 28 28 30 33 36 35 40 44
42 38 35 34 33 33 35 35 35 36 37 36 34 32 33 33 35 38 39 41 46 48
44 41 39 37 38 39 39 41 41 42 43 42 39 40 42 43 43 43 43 48 50 52
46 43 43 43 44 45 46 48 48 48 46 44 46 47 47 46 47 47 48 50 51 51
47 46 47 50 50 51 52 53 52 50 49 49 48 48 47 45 42 41 38 37 36 34
51 52 53 53 55 55 56 55 54 52 50 43 35 29 24 20 17 16 16 17 18 19
58 58 56 58 59 58 55 52 50 39 26 23 21 19 16 15 14 14 14 14 14 14
65 62 60 59 57 52 48 35 26 23 22 21 19 19 18 18 18 18 18 19 19 19
61 59 54 51 46 33 27 26 25 24 23 22 22 23 22 22 22 23 23 24 25 25
56 51 46 35 27 26 27 27 26 27 27 28 29 29 29 29 28 28 29 29 29 29

GFSNIL_prec_cthk_066.txt.gz
RH
33 32 30 29 28 27 26 25 24 24 26 28 29 29 30 32 35 39 40 41 38 37
35 32 30 29 27 25 25 25 26 28 29 29 28 27 27 28 30 34 35 36 36 38
35 31 29 28 27 27 27 28 29 28 28 27 24 25 26 27 30 33 33 34 36 36
38 36 35 33 31 31 31 31 31 30 28 26 27 27 28 29 30 30 31 32 33 36
39 38 37 36 36 36 35 35 32 31 31 32 33 34 33 32 32 32 35 37 40 39
41 41 42 42 40 39 36 35 36 36 36 37 37 38 38 37 36 38 42 44 43 44
47 47 47 45 42 39 39 40 42 42 42 44 44 44 44 45 47 48 49 48 50 49
50 49 46 44 44 44 45 46 47 47 49 47 48 49 49 51 52 51 50 50 48 45
51 48 47 46 49 50 50 51 51 51 52 50 49 51 50 45 37 32 29 27 26 26
58 54 52 53 53 54 55 55 53 53 51 45 36 28 22 19 17 16 15 15 14 14
58 57 58 57 58 57 57 57 55 45 31 25 23 21 19 18 18 18 19 19 19 20
62 62 61 61 62 62 59 50 37 27 23 23 22 22 22 23 24 24 24 24 25 25
63 64 64 63 60 55 41 26 24 24 24 24 25 27 28 30 31 31 31 31 30 30
61 61 59 56 48 32 26 25 25 26 27 28 30 33 35 37 39 39 40 39 39 38

GFSNIL_prec_cthk_072.txt.gz
RH
43 41 40 38 37 36 36 35 33 33 33 32 32 30 28 26 26 28 32 36 36 42
46 45 43 40 38 38 37 37 37 36 34 32 29 27 25 25 27 27 31 33 38 40
45 45 44 42 40 38 37 36 35 34 33 30 28 26 26 27 26 27 31 33 35 37
47 46 46 45 43 41 39 38 36 35 34 32 31 30 30 29 29 31 30 32 35 36
51 49 48 47 45 44 42 39 37 37 36 35 34 33 33 34 36 34 34 35 35 36
52 50 49 48 47 46 45 42 41 41 40 39 37 36 39 37 36 38 38 38 40 43
55 50 51 50 50 50 48 45 44 44 43 43 44 44 42 44 44 44 46 48 49 47
61 57 56 56 54 52 50 48 49 50 50 50 48 49 52 51 50 50 46 40 35 32
63 62 61 58 54 55 55 57 62 59 53 53 52 52 57 55 44 36 29 27 23 19
67 67 66 65 64 62 65 67 67 65 63 58 58 55 42 31 23 21 19 19 22 23
67 68 70 71 70 70 69 69 69 67 65 55 38 30 25 23 22 22 24 26 26 27
74 72 71 72 74 74 73 72 67 59 46 38 30 27 25 25 26 27 29 30 32 34
76 75 74 73 73 73 74 71 62 52 40 33 29 27 26 28 30 32 34 36 37 38
78 77 78 76 75 77 75 67 51 38 31 29 29 29 29 32 34 36 37 38 38 37

GFSNIL_prec_cthk_075.txt.gz
RH
56 55 52 48 44 41 40 39 38 37 36 36 36 35 35 35 34 31 30 28 33 37
55 55 53 48 46 44 42 41 40 40 39 38 37 36 34 33 31 30 28 30 34 36
59 55 53 51 48 45 45 44 42 41 39 37 36 35 34 32 31 31 30 31 34 35
56 54 54 52 50 47 45 44 43 42 41 39 38 37 35 34 34 34 33 32 33 38
55 54 53 52 51 50 49 48 46 45 44 42 40 39 38 37 37 36 36 38 39 38
62 59 57 53 52 51 50 49 47 46 45 44 44 43 42 42 40 39 41 41 41 40
64 63 61 58 54 53 51 50 49 49 48 47 46 45 46 46 46 46 45 46 49 48
61 62 62 61 60 62 58 57 54 53 51 49 49 51 52 52 53 54 58 55 51 48
62 63 62 62 61 62 62 60 58 55 55 55 58 59 57 54 57 53 46 41 32 24
69 68 67 67 66 66 67 66 65 65 63 65 65 65 67 58 47 39 35 26 23 23
68 72 74 70 68 69 70 73 74 74 72 68 67 61 48 41 36 30 26 27 27 27
72 71 72 73 73 72 73 75 78 78 74 65 53 47 38 34 30 31 30 29 30 32
68 70 73 75 76 77 76 77 77 72 64 52 45 40 35 33 32 32 31 33 36 37
68 69 72 78 79 80 81 80 79 72 62 51 43 37 34 33 33 35 36 38 39 38

GFSNIL_prec_cthk_081.txt.gz
RH
65 65 64 65 60 56 56 57 58 57 54 51 48 45 44 43 41 41 41 40 39 39
70 70 68 68 69 70 67 65 61 58 58 54 50 52 49 45 43 43 43 42 39 38
73 72 71 71 70 71 71 68 64 62 60 57 55 52 50 49 46 44 42 40 39 38
74 74 73 75 76 78 80 76 66 59 56 55 54 51 49 49 48 46 44 43 42 41
80 80 83 84 85 86 71 67 64 61 57 55 54 53 52 51 50 48 48 46 45 44
67 72 76 78 74 71 71 66 61 60 60 60 59 58 56 54 53 51 52 50 47 46
53 55 60 63 62 61 60 62 63 62 61 62 62 62 61 59 56 54 53 53 52 50
52 53 56 56 56 56 57 56 57 57 56 58 60 62 65 66 65 64 63 58 54 55
52 52 53 56 58 59 58 60 60 60 59 59 59 61 66 66 70 70 66 65 65 63
58 60 61 63 62 62 63 64 63 63 65 66 65 67 71 72 72 73 73 68 58 48
64 66 64 64 63 63 61 61 64 67 70 71 72 71 74 74 76 76 65 53 47 45
67 70 69 67 67 67 67 66 66 67 71 77 78 78 78 76 63 53 50 48 49 49
73 77 76 72 71 72 71 71 71 71 73 80 83 80 71 60 55 52 50 49 50 50
74 75 72 71 71 70 71 72 71 78 84 86 83 73 65 59 54 52 49 51 53 51

GFSNIL_prec_cthk_084.txt.gz
RH
81 81 79 72 72 69 67 62 61 64 65 61 58 56 52 50 48 47 47 46 44 43
77 78 75 76 73 71 69 68 69 69 67 68 66 60 59 57 55 52 48 48 48 46
74 76 77 76 74 76 77 73 73 76 78 77 74 67 58 54 52 49 48 48 47 46
75 80 83 81 81 82 81 81 85 84 82 76 71 62 59 54 53 53 51 50 49 50
73 73 73 74 76 78 83 90 85 77 72 68 63 60 60 59 56 54 54 52 52 51
60 70 72 74 78 78 79 75 72 68 64 61 61 61 60 57 58 58 58 56 56 54
50 55 62 63 63 63 62 62 60 59 57 56 55 55 56 56 56 58 61 63 61 59
47 50 53 52 53 53 54 53 52 53 54 54 53 53 54 56 56 57 61 67 69 68
48 52 54 56 56 56 56 55 55 55 56 58 58 57 58 59 62 63 65 67 70 72
55 55 57 59 60 61 59 56 55 56 58 58 60 61 64 66 69 69 69 71 72 69
60 61 64 66 64 60 60 61 62 62 62 63 64 66 69 73 73 75 75 76 68 54
65 67 69 67 67 68 68 67 68 69 69 68 68 68 70 74 80 78 71 57 51 50
73 74 73 75 77 76 75 74 71 71 71 72 72 73 77 85 74 64 56 54 52 51
78 79 80 78 76 76 73 72 71 71 70 75 76 81 77 71 67 61 59 54 54 54

GFSNIL_prec_cthk_087.txt.gz
RH
76 84 82 88 88 82 82 82 81 77 66 61 61 60 61 62 67 66 58 55 56 55
66 70 76 83 82 79 80 81 78 69 64 63 70 72 73 74 71 66 58 54 54 51
69 71 72 74 77 78 80 77 71 69 71 76 81 81 77 75 70 65 58 56 52 52
56 62 69 72 74 75 75 77 82 86 88 89 81 76 71 66 62 59 59 58 58 58
48 56 67 69 72 76 81 82 84 86 86 82 81 69 66 64 62 58 57 56 56 58
44 50 60 67 69 69 70 72 72 77 73 71 65 58 55 54 54 53 52 52 54 55
44 48 51 53 58 60 62 63 63 61 58 55 52 49 49 49 48 49 50 52 54 56
43 45 47 49 51 54 57 57 54 51 51 50 51 51 50 51 52 52 54 56 58 59
45 46 47 48 50 52 53 54 54 53 53 53 51 51 52 53 55 57 59 62 64 66
50 51 51 51 52 54 54 56 55 53 51 53 54 55 57 59 60 62 65 69 72 74
55 56 56 56 58 60 61 59 56 56 57 58 60 63 64 64 65 66 66 69 76 76
61 61 60 63 66 67 64 62 62 62 64 66 69 69 67 68 68 70 71 78 74 60
69 68 69 70 72 71 69 69 70 71 69 67 67 66 67 69 72 75 74 62 56 55
76 77 77 77 78 75 76 76 72 67 67 67 67 70 70 73 75 66 64 58 56 56

GFSNIL_prec_cthk_093.txt.gz
RH
68 72 70 79 81 82 83 87 90 92 89 88 87 86 85 80 80 78 75 73 71 69
62 64 63 64 67 69 71 78 79 83 80 82 84 81 79 75 75 71 71 75 74 69
63 61 59 58 58 59 64 68 70 70 73 76 78 77 74 72 69 71 76 75 69 64
55 54 52 50 51 53 58 61 64 68 70 70 71 69 74 78 76 78 74 76 72 69
55 54 52 50 49 50 55 60 61 66 68 67 68 72 74 78 76 73 70 65 58 52
43 43 42 41 41 42 45 49 53 58 60 61 63 65 70 70 65 60 52 48 45 43
36 35 36 36 37 40 42 48 52 55 56 57 57 59 58 54 50 45 42 41 41 41
38 38 38 38 38 41 43 45 47 50 51 51 52 51 48 48 44 42 39 39 39 41
40 40 40 41 42 42 42 44 47 47 49 53 51 50 49 47 44 42 40 43 47 50
46 46 46 47 48 47 49 49 51 51 56 56 54 50 47 46 47 47 48 51 54 56
48 51 53 53 53 54 54 56 56 57 58 58 56 53 53 51 53 55 59 61 61 59
48 53 57 61 62 60 60 64 61 60 59 60 59 58 58 60 63 63 63 59 58 59
52 59 60 63 66 69 72 70 68 67 69 69 67 65 66 67 67 67 61 57 59 63
54 59 67 70 72 75 76 75 75 76 79 78 75 72 72 72 71 70 64 64 64 58

GFSNIL_prec_cthk_096.txt.gz
RH
78 84 83 85 89 93 92 93 94 95 94 90 91 85 89 83 81 74 72 74 74 73
63 69 74 75 74 78 78 76 80 87 89 88 86 81 80 79 71 70 69 68 68 66
59 61 64 66 66 62 65 66 72 77 80 81 79 78 77 71 70 68 64 66 67 68
63 62 63 64 60 58 57 59 64 66 68 71 71 70 68 71 66 67 68 69 69 67
60 62 61 58 55 54 53 56 58 63 66 67 65 60 62 63 64 64 65 64 61 59
54 53 55 54 51 48 46 46 47 50 55 57 58 59 57 59 61 59 59 54 50 47
38 38 38 37 37 36 37 39 42 47 50 51 54 54 58 57 54 53 49 49 45 42
41 41 42 41 41 40 40 41 44 45 46 47 50 52 52 50 50 49 45 42 42 41
38 41 43 44 45 46 46 45 44 46 47 47 48 49 50 50 49 51 46 40 40 43
40 42 44 47 47 48 47 47 47 47 48 49 50 52 54 54 53 49 47 44 43 47
41 44 47 49 52 55 55 55 54 54 57 57 56 58 59 57 54 52 53 50 51 54
48 48 53 57 58 59 62 66 62 61 61 60 62 62 62 61 58 57 58 56 57 59
50 50 52 58 63 64 65 70 72 74 74 74 72 70 69 68 65 62 62 64 64 64
47 52 57 58 64 68 68 70 74 78 80 82 79 77 75 74 72 73 71 71 71 68

GFSNIL_prec_cthk_102.txt.gz
RH
96 96 93 94 92 90 88 90 95 94 93 95 89 94 91 83 88 93 93 87 86 84
87 84 84 85 89 93 93 95 96 93 92 92 92 92 92 89 87 91 93 91 87 82
68 69 76 76 72 73 80 85 85 83 79 81 85 92 92 94 94 97 94 85 76 67
60 60 62 64 67 69 69 68 69 69 71 70 76 78 85 85 87 85 80 74 71 64
60 59 59 59 58 58 59 61 62 64 62 65 68 71 75 82 86 88 78 72 63 61
42 44 45 49 52 53 55 57 57 57 57 59 62 66 68 75 83 86 76 63 63 62
36 36 36 36 37 38 39 40 42 43 46 50 50 55 58 61 71 69 69 69 68 62
33 32 32 32 32 33 35 38 40 40 42 46 47 50 54 60 64 71 72 72 71 64
35 36 35 35 34 34 37 38 42 43 45 47 49 54 58 62 62 63 65 65 62 62
30 30 30 31 32 34 38 43 47 50 51 53 54 58 60 63 63 61 61 60 61 61
28 29 29 30 31 31 32 37 44 49 54 58 60 65 66 64 62 62 63 63 62 62
26 27 29 30 31 32 34 37 42 47 52 56 61 68 74 76 74 69 68 69 69 68
23 24 27 31 33 36 38 40 44 49 55 61 62 68 75 82 85 85 83 80 76 73
27 29 31 31 34 37 38 41 42 46 52 55 64 71 79 81 85 89 91 92 88 84

GFSNIL_prec_cthk_108.txt.gz
RH
97 96 98 97 97 97 95 95 95 95 95 96 93 93 93 91 90 93 92 90 93 96
94 96 97 95 91 90 94 97 97 96 91 90 89 90 93 90 93 95 93 91 92 92
93 93 91 92 94 95 96 97 93 92 91 91 93 97 94 89 89 93 92 88 89 88
80 82 84 86 87 88 88 88 87 88 88 84 82 83 84 81 83 86 88 90 89 86
68 69 65 67 64 64 63 64 65 68 72 74 75 75 75 72 74 76 82 87 93 95
42 40 42 45 46 48 51 52 54 55 57 58 60 62 65 69 71 74 75 78 89 96
34 33 33 32 32 33 33 34 36 37 39 42 45 48 49 54 56 63 67 72 81 89
30 29 27 25 24 23 23 23 23 25 28 30 31 35 39 42 46 51 56 58 62 65
22 21 21 20 19 19 19 19 20 21 22 26 29 31 33 35 38 41 43 47 55 58
16 16 15 16 16 16 17 18 18 19 19 21 25 29 34 38 41 45 47 48 51 55
16 15 17 17 16 16 16 17 18 18 20 20 23 28 33 36 39 43 47 52 59 62
16 16 17 17 18 18 18 20 19 20 20 22 24 29 34 38 42 44 49 55 59 64
18 17 17 17 20 20 20 20 23 23 25 28 29 32 37 40 43 45 47 55 59 66
16 15 16 18 21 20 20 23 24 26 29 32 34 34 39 45 51 51 55 58 62 67